Regional Weather Roundup
Issued by NWS

Home | Current Version | Previous Version | Text Only | Print | Product List | Glossary On
Versions: 1 2 3 4 5 6 7 8 9 10 11 12 13 14 15 16 17 18 19 20 21 22 23 24 25 26 27 28 29 30 31 32 33 34 35 36 37 38 39 40 41 42 43 44 45 46 47 48 49 50
000
ASUS45 KBOI 230210
RWRID
WEATHER ROUNDUP FOR IDAHO
NATIONAL WEATHER SERVICE BOISE ID
800 PM MDT FRI AUG 22 2014

NOTE: "FAIR" INDICATES FEW OR NO CLOUDS BELOW 12000 FEET
WITH NO SIGNIFICANT WEATHER AND/OR OBSTRUCTIONS TO VISIBILITY

IDZ012-014-230300-
SOUTHWEST IDAHO


CITY           SKY/WX    TMP DP  RH WIND       PRES   REMARKS
BOISE          PTCLDY    75  35  23 NW17G25   29.87R
CALDWELL       PTCLDY    75  36  23 NW15G26   29.90R
MOUNTAIN HOME  CLOUDY    69  48  46 S14G24    29.89R
$$

IDZ016-017-230300-
SOUTHCENTRAL IDAHO


CITY           SKY/WX    TMP DP  RH WIND       PRES   REMARKS
BURLEY         PTCLDY    60  51  72 NE12      29.95F
JEROME         TSTM      50  45  83 N29G43    29.97R
TWIN FALLS     MOCLDY    63  53  70 N16       29.99R
$$

IDZ019>023-230300-
SOUTHEAST IDAHO


CITY           SKY/WX    TMP DP  RH WIND       PRES   REMARKS
IDAHO FALLS    CLOUDY    55  53  93 NW6       30.04F
POCATELLO      MOCLDY    55  53  93 N18G24    30.03R
REXBURG        CLOUDY    56  47  71 SE5       30.03F
$$

IDZ006-010-011-018-031-032-230300-
CENTRAL IDAHO MOUNTAINS


CITY           SKY/WX    TMP DP  RH WIND       PRES   REMARKS
MCCALL         MOCLDY    55  45  68 NW6       30.01R
HAILEY         LGT RAIN  50  45  81 W9        30.07F
STANLEY          N/A     45  41  86 CALM      30.09F
SALMON         CLOUDY    57  45  62 SW13      30.01F
CHALLIS        CLOUDY    51  44  77 E3        30.07F
$$

IDZ002-004-006-007-026-230300-
NORTHERN IDAHO


CITY           SKY/WX    TMP DP  RH WIND       PRES   REMARKS
LEWISTON       LGT RAIN  64  56  75 SE12      29.97R
LOWELL           N/A     58  57  97 CALM      30.04F
COEUR D`ALENE  MOCLDY   N/A N/A N/A N16G22    30.01S
MULLAN PASS    CLOUDY    48  44  86 CALM      30.14R
$$


USA.gov is the U.S. government's official web portal to all federal, state and local government web resources and services.